Location: Columbia
(38.9520°N, 92.3340°W)
Time: 22:30:20
(UTC-05:00)

SJ-11-01 - Visible Passes

Search period start: 31 July 2015 00:00
Search period end: 10 August 2015 00:00
Orbit: 687 x 701 km, 98.2° (Epoch: 31 July)

Date Brightness Start Highest point End Pass type
(mag) Time Alt. Az. Time Alt. Az. Time Alt. Az.
31 Jul 4.3 21:11:39 10° SSE 21:16:23 83° ENE 21:21:10 10° N visible
01 Aug 5.7 21:52:16 10° SSW 21:56:40 37° W 22:01:03 10° NNW visible
02 Aug 4.5 20:54:38 10° SSE 20:59:15 55° ENE 21:03:55 10° N visible
02 Aug 6.9 22:34:36 10° SW 22:37:16 14° W 22:39:41 10° WNW visible
03 Aug 4.9 21:34:45 10° S 21:39:25 56° W 21:44:06 10° NNW visible
04 Aug 6.5 22:16:10 10° SW 22:19:51 22° W 22:23:27 10° NW visible
05 Aug 4.3 21:17:28 10° SSE 21:22:13 86° WSW 21:27:00 10° NNW visible
06 Aug 5.9 21:58:16 10° SSW 22:02:32 32° W 22:06:46 10° NNW visible
07 Aug 4.4 21:00:23 10° SSE 21:05:04 63° ENE 21:09:47 10° N visible
07 Aug 7.0 22:41:04 10° WSW 22:43:10 12° W 22:44:59 10° WNW visible
08 Aug 5.2 21:40:40 10° S 21:45:16 49° W 21:49:52 10° NNW visible
09 Aug 4.8 20:43:30 10° SE 20:47:56 41° ENE 20:52:25 10° N visible
09 Aug 6.7 22:22:19 10° SW 22:25:44 19° W 22:29:01 10° NW visible
